START_TIME,STEP,MOV.,AL01,t_acc.,AL02,t_acc.,E37,t_acc.,H21,t_acc.
1981-08-30 00:00:34.880 ,1,0,0.,24.0,0.,24.0,0.,24.0,0.,24.0
1981-08-30 00:00:58.880 ,2,1,0.,24.0,0.,24.0,1.,24.0,0.,24.0
1981-08-30 00:01:22.880 ,2,0,0.,24.0,0.,24.0,0.,24.0,0.,24.0
1981-08-30 00:01:46.880 ,3,1,0.,24.0,0.,24.0,1.,24.0,0.,24.0
1981-08-30 00:02:10.880 ,4,1,0.,24.0,0.,24.0,0.,24.0,0.,24.0
1981-08-30 00:02:34.880 ,5,1,0.,24.0,0.,24.0,1.,24.0,0.,24.0
1981-08-30 00:02:58.880 ,6,1,0.,24.0,0.,24.0,0.,24.0,0.,24.0
1981-08-30 00:03:22.880 ,7,1,5.,24.0,0.,24.0,1.,24.0,0.,24.0
1981-08-30 00:03:46.880 ,7,1,26.,24.0,0.,24.0,0.,24.0,0.,24.0
1981-08-30 00:04:10.880 ,6,1,25.,24.0,0.,24.0,1.,24.0,0.,24.0
1981-08-30 00:04:34.880 ,5,1,0.,24.0,0.,24.0,2.,24.0,0.,24.0
1981-08-30 00:04:58.880 ,4,1,0.,24.0,0.,24.0,2.,24.0,0.,24.0
1981-08-30 00:05:22.880 ,3,1,0.,24.0,0.,24.0,0.,24.0,0.,24.0
1981-08-30 00:05:46.880 ,2,1,0.,24.0,0.,24.0,0.,24.0,0.,24.0
1981-08-30 00:06:10.880 ,1,1,0.,24.0,0.,24.0,0.,24.0,0.,24.0
1981-08-30 00:06:34.880 ,0,1,0.,24.0,0.,24.0,1.,24.0,0.,24.0
1981-08-30 00:06:58.880 ,0,1,0.,24.0,0.,24.0,0.,24.0,0.,24.0
1981-08-30 00:07:22.880 ,1,1,0.,24.0,0.,24.0,0.,24.0,0.,24.0
1981-08-30 00:07:46.880 ,2,1,0.,24.0,0.,24.0,0.,24.0,0.,24.0
1981-08-30 00:08:10.880 ,3,1,0.,24.0,0.,24.0,1.,24.0,0.,24.0
1981-08-30 00:08:34.880 ,3,0,0.,24.0,0.,24.0,2.,24.0,0.,24.0
1981-08-30 00:08:58.880 ,4,1,0.,24.0,0.,24.0,0.,24.0,0.,24.0
1981-08-30 00:09:22.880 ,4,0,0.,24.0,0.,24.0,1.,24.0,0.,24.0
1981-08-30 00:10:34.880 ,0,0,0.,24.0,0.,24.0,0.,24.0,0.,24.0
1981-08-30 00:10:58.880 ,0,0,0.,24.0,0.,24.0,0.,24.0,0.,24.0
1981-08-30 00:11:22.880 ,7,1,6.,24.0,0.,24.0,2.,24.0,0.,24.0
1981-08-30 00:11:46.880 ,7,0,30.,24.0,0.,24.0,0.,24.0,0.,24.0
1981-08-30 00:12:10.880 ,7,1,31.,24.0,0.,24.0,0.,24.0,0.,24.0
1981-08-30 00:12:34.880 ,7,0,33.,24.0,0.,24.0,0.,24.0,0.,24.0
1981-08-30 00:12:58.880 ,6,1,25.,24.0,0.,24.0,0.,24.0,0.,24.0
1981-08-30 00:13:22.880 ,6,0,0.,24.0,0.,24.0,0.,24.0,0.,24.0
1981-08-30 00:13:46.880 ,5,1,0.,24.0,0.,24.0,0.,24.0,0.,24.0
1981-08-30 00:14:10.880 ,5,0,0.,24.0,0.,24.0,1.,24.0,0.,24.0
1981-08-30 00:14:34.880 ,4,1,0.,24.0,0.,24.0,0.,24.0,0.,24.0
1981-08-30 00:14:58.880 ,4,0,0.,24.0,0.,24.0,0.,24.0,0.,24.0
1981-08-30 00:15:22.880 ,3,1,0.,24.0,0.,24.0,0.,24.0,0.,24.0
1981-08-30 00:15:46.880 ,3,0,0.,24.0,0.,24.0,0.,24.0,0.,24.0
1981-08-30 00:16:10.880 ,2,1,0.,24.0,0.,24.0,0.,24.0,0.,24.0
1981-08-30 00:16:34.880 ,2,0,0.,24.0,1.,24.0,0.,24.0,0.,24.0
1981-08-30 00:16:58.880 ,1,1,0.,24.0,0.,24.0,0.,24.0,0.,24.0
1981-08-30 00:17:22.880 ,1,0,0.,24.0,0.,24.0,0.,24.0,0.,24.0
1981-08-30 00:17:46.880 ,0,1,0.,24.0,0.,24.0,0.,24.0,0.,24.0
1981-08-30 00:18:10.880 ,0,0,0.,24.0,0.,24.0,0.,24.0,0.,24.0
1981-08-30 00:18:34.880 ,0,1,1.,24.0,0.,24.0,0.,24.0,0.,24.0
1981-08-30 00:18:58.880 ,0,0,0.,24.0,0.,24.0,0.,24.0,0.,24.0
1981-08-30 00:19:22.880 ,1,1,1.,24.0,0.,24.0,1.,24.0,0.,24.0
1981-08-30 00:19:46.880 ,1,0,0.,24.0,0.,24.0,0.,24.0,0.,24.0
1981-08-30 00:24:10.880 ,0,0,0.,24.0,0.,24.0,0.,24.0,0.,24.0
1981-08-30 00:24:34.880 ,3,1,0.,24.0,0.,24.0,0.,24.0,0.,24.0
1981-08-30 00:24:58.880 ,2,1,0.,24.0,0.,24.0,0.,24.0,0.,24.0
1981-08-30 00:25:22.880 ,1,1,0.,24.0,0.,24.0,0.,24.0,0.,24.0
1981-08-30 00:25:46.880 ,0,1,0.,24.0,0.,24.0,0.,24.0,0.,24.0
1981-08-30 00:26:10.880 ,0,1,0.,24.0,0.,24.0,0.,24.0,0.,24.0
1981-08-30 00:26:34.880 ,1,1,0.,24.0,0.,24.0,0.,24.0,0.,24.0
1981-08-30 00:26:58.880 ,2,1,0.,24.0,0.,24.0,1.,24.0,0.,24.0
1981-08-30 00:27:22.880 ,3,1,0.,24.0,0.,24.0,0.,24.0,0.,24.0
1981-08-30 00:27:46.880 ,3,0,0.,24.0,0.,24.0,0.,24.0,0.,24.0
1981-08-30 00:27:46.880 ,3,0,0.,24.0,0.,24.0,0.,24.0,0.,24.0
1981-08-30 00:28:10.880 ,4,1,0.,24.0,0.,24.0,0.,24.0,0.,24.0
1981-08-30 00:28:34.880 ,4,0,0.,24.0,0.,24.0,0.,24.0,0.,24.0
1981-08-30 00:28:58.880 ,5,1,0.,24.0,0.,24.0,0.,24.0,0.,24.0
1981-08-30 00:29:22.880 ,5,0,0.,24.0,0.,24.0,0.,24.0,0.,24.0
1981-08-30 00:29:46.880 ,6,1,0.,24.0,0.,24.0,1.,24.0,0.,24.0
1981-08-30 00:30:10.880 ,6,0,0.,24.0,0.,24.0,1.,24.0,0.,24.0
1981-08-30 00:30:34.880 ,7,1,5.,24.0,0.,24.0,0.,24.0,0.,24.0
1981-08-30 00:30:58.880 ,7,0,24.,24.0,0.,24.0,0.,24.0,0.,24.0
1981-08-30 00:31:22.880 ,7,1,37.,24.0,0.,24.0,0.,24.0,0.,24.0
1981-08-30 00:31:46.880 ,7,0,37.,24.0,0.,24.0,0.,24.0,0.,24.0
1981-08-30 00:32:10.880 ,6,1,23.,24.0,0.,24.0,0.,24.0,0.,24.0
1981-08-30 00:32:34.880 ,6,0,0.,24.0,0.,24.0,0.,24.0,0.,24.0
1981-08-30 00:32:58.880 ,5,1,0.,24.0,0.,24.0,0.,24.0,0.,24.0
1981-08-30 00:33:22.880 ,5,0,0.,24.0,0.,24.0,1.,24.0,0.,24.0
1981-08-30 00:33:46.880 ,4,1,0.,24.0,0.,24.0,0.,24.0,0.,24.0
1981-08-30 00:34:10.880 ,4,0,0.,24.0,0.,24.0,0.,24.0,0.,24.0
1981-08-30 00:34:34.880 ,3,1,0.,24.0,0.,24.0,1.,24.0,0.,24.0
1981-08-30 00:34:58.880 ,3,0,0.,24.0,0.,24.0,1.,24.0,0.,24.0
1981-08-30 00:35:22.880 ,2,1,0.,24.0,0.,24.0,0.,24.0,0.,24.0
1981-08-30 00:35:46.880 ,2,0,0.,24.0,0.,24.0,0.,24.0,0.,24.0
1981-08-30 00:36:10.880 ,1,1,0.,24.0,0.,24.0,0.,24.0,0.,24.0
1981-08-30 00:36:34.880 ,1,0,0.,24.0,0.,24.0,0.,24.0,0.,24.0
1981-08-30 00:36:58.880 ,0,1,0.,24.0,0.,24.0,0.,24.0,0.,24.0
1981-08-30 00:37:22.880 ,0,0,0.,24.0,0.,24.0,0.,24.0,0.,24.0
1981-08-30 00:37:46.880 ,0,1,0.,24.0,0.,24.0,2.,24.0,0.,24.0
1981-08-30 00:38:10.880 ,0,0,0.,24.0,0.,24.0,0.,24.0,0.,24.0
1981-08-30 00:38:34.880 ,1,1,0.,24.0,0.,24.0,1.,24.0,0.,24.0
1981-08-30 00:38:58.880 ,1,0,0.,24.0,0.,24.0,1.,24.0,0.,24.0
1981-08-30 00:39:22.880 ,2,1,0.,24.0,0.,24.0,1.,24.0,0.,24.0
1981-08-30 00:39:46.880 ,2,0,0.,24.0,0.,24.0,0.,24.0,0.,24.0
1981-08-30 00:40:10.880 ,3,1,0.,24.0,0.,24.0,0.,24.0,0.,24.0
1981-08-30 00:40:34.880 ,4,1,0.,24.0,0.,24.0,1.,24.0,0.,24.0
1981-08-30 00:40:58.880 ,5,1,0.,24.0,0.,24.0,1.,24.0,0.,24.0
1981-08-30 00:41:22.880 ,6,1,0.,24.0,0.,24.0,1.,24.0,0.,24.0
1981-08-30 00:41:46.880 ,7,1,7.,24.0,0.,24.0,0.,24.0,0.,24.0
1981-08-30 00:42:10.880 ,7,1,28.,24.0,0.,24.0,0.,24.0,0.,24.0
1981-08-30 00:42:34.880 ,6,1,22.,24.0,0.,24.0,2.,24.0,0.,24.0
1981-08-30 00:42:58.880 ,0,0,0.,24.0,0.,24.0,0.,24.0,0.,24.0
1981-08-30 00:51:26.480 ,0,0,32.,24.0,0.,24.0,0.,24.0,0.,24.0
1981-08-30 00:51:46.880 ,0,0,0.,24.0,0.,24.0,0.,24.0,0.,24.0
1981-08-30 00:52:10.880 ,5,1,0.,24.0,0.,24.0,0.,24.0,0.,24.0
1981-08-30 00:52:34.880 ,5,0,0.,24.0,0.,24.0,0.,24.0,0.,24.0
1981-08-30 00:52:58.880 ,4,1,0.,24.0,0.,24.0,0.,24.0,0.,24.0
1981-08-30 00:53:22.880 ,4,0,0.,24.0,0.,24.0,0.,24.0,0.,24.0
1981-08-30 00:53:46.880 ,3,1,0.,24.0,0.,24.0,0.,24.0,0.,24.0
1981-08-30 00:54:10.880 ,3,0,0.,24.0,0.,24.0,1.,24.0,0.,24.0
1981-08-30 00:54:34.880 ,2,1,0.,24.0,0.,24.0,1.,24.0,0.,24.0
1981-08-30 00:54:58.880 ,2,0,0.,24.0,0.,24.0,2.,24.0,0.,24.0
1981-08-30 00:55:22.880 ,1,1,0.,24.0,0.,24.0,1.,24.0,0.,24.0
1981-08-30 00:55:46.880 ,1,0,0.,24.0,0.,24.0,1.,24.0,0.,24.0
1981-08-30 00:56:10.880 ,0,1,0.,24.0,1.,24.0,0.,24.0,0.,24.0
1981-08-30 00:56:34.880 ,0,0,0.,24.0,0.,24.0,0.,24.0,0.,24.0
1981-08-30 00:56:58.880 ,0,1,0.,24.0,0.,24.0,0.,24.0,0.,24.0
1981-08-30 00:57:22.880 ,0,0,0.,24.0,0.,24.0,1.,24.0,0.,24.0
1981-08-30 00:57:46.880 ,1,1,0.,24.0,0.,24.0,1.,24.0,0.,24.0
1981-08-30 00:58:10.880 ,1,0,0.,24.0,0.,24.0,1.,24.0,0.,24.0
1981-08-30 00:58:34.880 ,2,1,0.,24.0,0.,24.0,0.,24.0,0.,24.0
1981-08-30 00:58:58.880 ,2,0,0.,24.0,0.,24.0,0.,24.0,0.,24.0
1981-08-30 00:59:22.880 ,3,1,0.,24.0,0.,24.0,0.,24.0,0.,24.0
1981-08-30 00:59:46.880 ,4,1,0.,24.0,0.,24.0,2.,24.0,0.,24.0
1981-08-30 01:00:10.870 ,5,1,0.,24.0,0.,24.0,0.,24.0,0.,24.0
1981-08-30 01:00:34.880 ,6,1,0.,24.0,0.,24.0,0.,24.0,0.,24.0
1981-08-30 01:00:58.880 ,7,1,5.,24.0,0.,24.0,0.,24.0,0.,24.0
1981-08-30 01:01:22.880 ,7,1,30.,24.0,0.,24.0,0.,24.0,0.,24.0
1981-08-30 01:01:46.880 ,6,1,21.,24.0,0.,24.0,1.,24.0,0.,24.0
1981-08-30 01:02:10.880 ,5,1,0.,24.0,0.,24.0,1.,24.0,0.,24.0
1981-08-30 01:02:34.880 ,4,1,0.,24.0,0.,24.0,0.,24.0,0.,24.0
1981-08-30 01:02:58.880 ,3,1,0.,24.0,0.,24.0,1.,24.0,0.,24.0
1981-08-30 01:03:22.880 ,2,1,0.,24.0,0.,24.0,0.,24.0,0.,24.0
1981-08-30 01:03:46.880 ,1,1,0.,24.0,0.,24.0,0.,24.0,0.,24.0
1981-08-30 01:04:10.880 ,0,1,0.,24.0,0.,24.0,0.,24.0,0.,24.0
1981-08-30 01:04:34.880 ,0,1,1.,24.0,0.,24.0,0.,24.0,0.,24.0
1981-08-30 01:04:58.880 ,1,1,0.,24.0,0.,24.0,0.,24.0,0.,24.0
1981-08-30 01:05:22.880 ,2,1,0.,24.0,0.,24.0,0.,24.0,0.,24.0
1981-08-30 01:05:46.880 ,3,1,0.,24.0,0.,24.0,1.,24.0,0.,24.0
1981-08-30 01:06:10.880 ,3,0,0.,24.0,0.,24.0,0.,24.0,0.,24.0
1981-08-30 01:06:34.880 ,4,1,0.,24.0,0.,24.0,0.,24.0,0.,24.0
1981-08-30 01:06:58.880 ,4,0,0.,24.0,0.,24.0,0.,24.0,0.,24.0
1981-08-30 01:07:22.880 ,5,1,0.,24.0,0.,24.0,1.,24.0,0.,24.0
1981-08-30 01:07:46.880 ,5,0,0.,24.0,0.,24.0,0.,24.0,0.,24.0
1981-08-30 01:08:10.880 ,6,1,0.,24.0,0.,24.0,0.,24.0,0.,24.0
1981-08-30 01:08:34.880 ,6,0,0.,24.0,0.,24.0,0.,24.0,0.,24.0
1981-08-30 01:08:58.880 ,7,1,4.,24.0,0.,24.0,0.,24.0,0.,24.0
1981-08-30 01:09:22.880 ,7,0,34.,24.0,0.,24.0,0.,24.0,0.,24.0
1981-08-30 01:09:46.880 ,7,1,36.,24.0,0.,24.0,0.,24.0,0.,24.0
1981-08-30 01:10:10.880 ,7,0,18.,24.0,0.,24.0,1.,24.0,0.,24.0
1981-08-30 01:10:34.880 ,6,1,25.,24.0,0.,24.0,0.,24.0,0.,24.0
1981-08-30 01:10:58.880 ,6,0,0.,24.0,0.,24.0,1.,24.0,0.,24.0
1981-08-30 01:12:10.880 ,0,0,0.,24.0,0.,24.0,1.,24.0,0.,24.0
1981-08-30 01:12:34.880 ,0,0,0.,24.0,0.,24.0,1.,24.0,0.,24.0
1981-08-30 01:12:58.880 ,3,1,0.,24.0,0.,24.0,1.,24.0,0.,24.0
1981-08-30 01:13:22.880 ,3,0,0.,24.0,0.,24.0,1.,24.0,0.,24.0
1981-08-30 01:13:46.870 ,2,1,0.,24.0,0.,24.0,0.,24.0,0.,24.0
1981-08-30 01:14:10.870 ,2,0,0.,24.0,0.,24.0,1.,24.0,0.,24.0
1981-08-30 01:14:34.870 ,1,1,0.,24.0,0.,24.0,0.,24.0,0.,24.0
1981-08-30 01:14:58.870 ,1,0,0.,24.0,0.,24.0,1.,24.0,0.,24.0
1981-08-30 01:15:22.870 ,0,1,1.,24.0,0.,24.0,0.,24.0,0.,24.0
1981-08-30 01:15:46.870 ,0,0,0.,24.0,0.,24.0,1.,24.0,0.,24.0
1981-08-30 01:16:10.870 ,0,1,0.,24.0,0.,24.0,0.,24.0,0.,24.0
1981-08-30 01:16:34.870 ,0,0,0.,24.0,0.,24.0,0.,24.0,0.,24.0
1981-08-30 01:16:58.870 ,1,1,0.,24.0,0.,24.0,0.,24.0,0.,24.0
1981-08-30 01:17:22.870 ,1,0,0.,24.0,0.,24.0,0.,24.0,0.,24.0
1981-08-30 01:17:46.870 ,2,1,0.,24.0,0.,24.0,0.,24.0,0.,24.0
1981-08-30 01:18:10.870 ,2,0,0.,24.0,0.,24.0,0.,24.0,0.,24.0
1981-08-30 01:18:34.870 ,3,1,0.,24.0,0.,24.0,0.,24.0,0.,24.0
1981-08-30 01:18:58.870 ,4,1,0.,24.0,0.,24.0,0.,24.0,0.,24.0
1981-08-30 01:19:22.870 ,5,1,0.,24.0,0.,24.0,1.,24.0,0.,24.0
1981-08-30 01:19:46.870 ,6,1,0.,24.0,0.,24.0,0.,24.0,0.,24.0
1981-08-30 01:20:10.870 ,7,1,11.,24.0,0.,24.0,0.,24.0,0.,24.0
1981-08-30 01:20:34.870 ,7,1,30.,24.0,0.,24.0,0.,24.0,0.,24.0
1981-08-30 01:20:58.870 ,6,1,29.,24.0,0.,24.0,0.,24.0,0.,24.0
1981-08-30 01:21:22.870 ,5,1,0.,24.0,0.,24.0,0.,24.0,0.,24.0
1981-08-30 01:21:46.870 ,4,1,0.,24.0,0.,24.0,0.,24.0,0.,24.0
1981-08-30 01:22:10.870 ,3,1,0.,24.0,0.,24.0,0.,24.0,0.,24.0
1981-08-30 01:22:34.870 ,2,1,0.,24.0,0.,24.0,0.,24.0,0.,24.0
1981-08-30 01:22:58.870 ,1,1,0.,24.0,0.,24.0,0.,24.0,0.,24.0
1981-08-30 01:23:22.870 ,0,1,0.,24.0,0.,24.0,1.,24.0,0.,24.0
1981-08-30 01:23:46.870 ,0,1,0.,24.0,0.,24.0,0.,24.0,0.,24.0
1981-08-30 01:24:10.870 ,1,1,1.,24.0,0.,24.0,0.,24.0,0.,24.0
1981-08-30 01:24:34.870 ,2,1,0.,24.0,0.,24.0,2.,24.0,0.,24.0
1981-08-30 01:24:58.870 ,3,1,0.,24.0,0.,24.0,0.,24.0,0.,24.0
1981-08-30 01:25:22.870 ,3,0,0.,24.0,0.,24.0,0.,24.0,0.,24.0
1981-08-30 01:25:46.870 ,4,1,0.,24.0,0.,24.0,0.,24.0,0.,24.0
1981-08-30 01:26:10.870 ,4,0,0.,24.0,0.,24.0,0.,24.0,0.,24.0
1981-08-30 01:26:34.870 ,5,1,0.,24.0,0.,24.0,0.,24.0,0.,24.0
1981-08-30 01:26:58.870 ,5,0,0.,24.0,0.,24.0,0.,24.0,0.,24.0
1981-08-30 01:27:22.870 ,6,1,0.,24.0,0.,24.0,0.,24.0,0.,24.0
1981-08-30 01:27:46.870 ,6,0,0.,24.0,0.,24.0,0.,24.0,0.,24.0
1981-08-30 01:28:10.870 ,7,1,8.,24.0,0.,24.0,1.,24.0,0.,24.0
1981-08-30 01:28:34.870 ,7,0,34.,24.0,0.,24.0,0.,24.0,0.,24.0
1981-08-30 01:28:58.870 ,7,1,27.,24.0,0.,24.0,0.,24.0,0.,24.0
1981-08-30 01:29:22.870 ,7,0,34.,24.0,0.,24.0,0.,24.0,0.,24.0
1981-08-30 01:29:46.870 ,6,1,21.,24.0,0.,24.0,0.,24.0,0.,24.0
1981-08-30 01:30:10.870 ,6,0,0.,24.0,0.,24.0,0.,24.0,0.,24.0
1981-08-30 01:30:34.870 ,5,1,0.,24.0,0.,24.0,0.,24.0,0.,24.0
1981-08-30 01:30:58.870 ,5,0,0.,24.0,0.,24.0,0.,24.0,0.,24.0
1981-08-30 01:31:22.870 ,4,1,0.,24.0,0.,24.0,1.,24.0,0.,24.0
1981-08-30 01:31:46.870 ,4,0,0.,24.0,0.,24.0,0.,24.0,0.,24.0
1981-08-30 01:32:10.870 ,3,1,1.,24.0,0.,24.0,0.,24.0,0.,24.0
1981-08-30 01:32:34.870 ,3,0,0.,24.0,0.,24.0,0.,24.0,0.,24.0
1981-08-30 01:32:58.870 ,2,1,0.,24.0,0.,24.0,0.,24.0,0.,24.0
1981-08-30 01:33:22.870 ,2,0,0.,24.0,0.,24.0,0.,24.0,0.,24.0
1981-08-30 01:33:46.870 ,1,1,0.,24.0,0.,24.0,0.,24.0,0.,24.0
1981-08-30 01:34:10.870 ,1,0,0.,24.0,0.,24.0,0.,24.0,0.,24.0
1981-08-30 01:34:34.870 ,0,1,0.,24.0,0.,24.0,0.,24.0,0.,24.0
1981-08-30 01:34:58.870 ,0,0,0.,24.0,0.,24.0,0.,24.0,0.,24.0
1981-08-30 01:35:22.870 ,0,1,0.,24.0,0.,24.0,1.,24.0,0.,24.0
1981-08-30 01:35:46.870 ,0,0,0.,24.0,0.,24.0,2.,24.0,0.,24.0
1981-08-30 01:36:10.870 ,1,1,0.,24.0,0.,24.0,1.,24.0,0.,24.0
1981-08-30 01:36:34.870 ,1,0,0.,24.0,0.,24.0,1.,24.0,0.,24.0
1981-08-30 01:36:58.870 ,2,1,0.,24.0,0.,24.0,0.,24.0,0.,24.0
1981-08-30 01:37:22.870 ,2,0,0.,24.0,0.,24.0,1.,24.0,0.,24.0
1981-08-30 01:37:46.870 ,3,1,0.,24.0,0.,24.0,2.,24.0,0.,24.0
1981-08-30 01:38:10.870 ,4,1,0.,24.0,0.,24.0,0.,24.0,0.,24.0
1981-08-30 01:38:34.870 ,5,1,0.,24.0,0.,24.0,0.,24.0,0.,24.0
1981-08-30 01:38:58.870 ,6,1,0.,24.0,0.,24.0,2.,24.0,0.,24.0
1981-08-30 01:39:22.870 ,7,1,10.,24.0,0.,24.0,0.,24.0,0.,24.0
1981-08-30 01:39:46.870 ,7,1,37.,24.0,0.,24.0,0.,24.0,0.,24.0
1981-08-30 01:40:10.870 ,6,1,21.,24.0,0.,24.0,0.,24.0,0.,24.0
1981-08-30 01:40:34.870 ,5,1,0.,24.0,0.,24.0,0.,24.0,0.,24.0
1981-08-30 01:40:58.870 ,4,1,0.,24.0,0.,24.0,1.,24.0,0.,24.0
1981-08-30 01:41:22.870 ,3,1,0.,24.0,0.,24.0,0.,24.0,0.,24.0
1981-08-30 01:41:46.870 ,2,1,0.,24.0,0.,24.0,0.,24.0,0.,24.0
1981-08-30 01:42:10.870 ,1,1,0.,24.0,0.,24.0,0.,24.0,0.,24.0
1981-08-30 01:42:34.870 ,0,1,0.,24.0,0.,24.0,0.,24.0,0.,24.0
1981-08-30 01:42:58.870 ,0,1,0.,24.0,0.,24.0,2.,24.0,0.,24.0
1981-08-30 01:43:22.870 ,1,1,0.,24.0,0.,24.0,0.,24.0,0.,24.0
1981-08-30 01:43:46.870 ,2,1,0.,24.0,0.,24.0,0.,24.0,0.,24.0
1981-08-30 01:44:10.870 ,3,1,0.,24.0,0.,24.0,0.,24.0,0.,24.0
1981-08-30 01:44:34.870 ,3,0,0.,24.0,0.,24.0,0.,24.0,0.,24.0
1981-08-30 01:44:58.870 ,4,1,0.,24.0,0.,24.0,0.,24.0,0.,24.0
1981-08-30 01:45:22.870 ,4,0,0.,24.0,0.,24.0,1.,24.0,0.,24.0
1981-08-30 01:45:46.870 ,5,1,0.,24.0,0.,24.0,0.,24.0,0.,24.0
1981-08-30 01:46:10.870 ,5,0,0.,24.0,1.,24.0,0.,24.0,0.,24.0
1981-08-30 01:46:34.870 ,6,1,0.,24.0,0.,24.0,0.,24.0,0.,24.0
1981-08-30 01:46:58.870 ,6,0,0.,24.0,0.,24.0,0.,24.0,0.,24.0
1981-08-30 01:47:22.870 ,7,1,9.,24.0,0.,24.0,0.,24.0,0.,24.0
1981-08-30 01:47:46.870 ,7,0,24.,24.0,0.,24.0,1.,24.0,0.,24.0
1981-08-30 01:48:10.870 ,7,1,41.,24.0,0.,24.0,2.,24.0,0.,24.0
1981-08-30 01:48:34.870 ,7,0,35.,24.0,0.,24.0,0.,24.0,0.,24.0
1981-08-30 01:48:58.870 ,6,1,19.,24.0,0.,24.0,1.,24.0,0.,24.0
1981-08-30 01:49:22.870 ,6,0,0.,24.0,0.,24.0,0.,24.0,0.,24.0
1981-08-30 01:49:46.870 ,5,1,0.,24.0,0.,24.0,0.,24.0,0.,24.0
1981-08-30 01:50:10.870 ,5,0,0.,24.0,0.,24.0,0.,24.0,0.,24.0
1981-08-30 01:50:34.870 ,4,1,0.,24.0,0.,24.0,0.,24.0,0.,24.0
1981-08-30 01:50:58.870 ,4,0,0.,24.0,0.,24.0,2.,24.0,0.,24.0
1981-08-30 01:51:22.870 ,3,1,1.,24.0,0.,24.0,1.,24.0,0.,24.0
1981-08-30 01:51:46.870 ,3,0,0.,24.0,0.,24.0,0.,24.0,0.,24.0
1981-08-30 01:52:10.870 ,2,1,0.,24.0,1.,24.0,0.,24.0,0.,24.0
1981-08-30 01:52:34.870 ,2,0,0.,24.0,0.,24.0,0.,24.0,0.,24.0
1981-08-30 01:52:58.870 ,1,1,0.,24.0,0.,24.0,0.,24.0,0.,24.0
1981-08-30 01:53:22.870 ,1,0,0.,24.0,0.,24.0,0.,24.0,0.,24.0
1981-08-30 01:53:46.870 ,0,1,0.,24.0,0.,24.0,0.,24.0,0.,24.0
1981-08-30 01:54:10.870 ,0,0,0.,24.0,0.,24.0,1.,24.0,0.,24.0
1981-08-30 01:54:34.870 ,0,1,0.,24.0,0.,24.0,0.,24.0,0.,24.0
1981-08-30 01:54:58.870 ,0,0,1.,24.0,0.,24.0,0.,24.0,0.,24.0
1981-08-30 01:55:22.870 ,1,1,0.,24.0,0.,24.0,0.,24.0,0.,24.0
1981-08-30 01:55:46.870 ,1,0,0.,24.0,0.,24.0,1.,24.0,0.,24.0
1981-08-30 01:56:10.870 ,2,1,1.,24.0,0.,24.0,0.,24.0,0.,24.0
1981-08-30 01:56:34.870 ,2,0,0.,24.0,0.,24.0,0.,24.0,0.,24.0
1981-08-30 01:56:58.870 ,3,1,0.,24.0,0.,24.0,1.,24.0,0.,24.0
1981-08-30 01:57:22.870 ,4,1,0.,24.0,0.,24.0,0.,24.0,0.,24.0
1981-08-30 01:57:46.870 ,5,1,0.,24.0,0.,24.0,1.,24.0,0.,24.0
1981-08-30 01:58:10.870 ,6,1,0.,24.0,0.,24.0,0.,24.0,0.,24.0
1981-08-30 01:58:34.870 ,7,1,9.,24.0,0.,24.0,0.,24.0,0.,24.0
1981-08-30 01:58:58.870 ,7,1,43.,24.0,0.,24.0,0.,24.0,0.,24.0
1981-08-30 01:59:22.870 ,6,1,22.,24.0,0.,24.0,0.,24.0,0.,24.0
1981-08-30 01:59:46.870 ,5,1,0.,24.0,0.,24.0,0.,24.0,0.,24.0
1981-08-30 02:00:10.870 ,4,1,0.,24.0,0.,24.0,0.,24.0,0.,24.0
1981-08-30 02:00:34.870 ,3,1,0.,24.0,0.,24.0,1.,24.0,0.,24.0
1981-08-30 02:00:58.870 ,2,1,0.,24.0,0.,24.0,1.,24.0,0.,24.0
1981-08-30 02:01:22.870 ,1,1,0.,24.0,1.,24.0,0.,24.0,0.,24.0
1981-08-30 02:01:46.870 ,0,1,0.,24.0,0.,24.0,0.,24.0,0.,24.0
1981-08-30 02:02:10.870 ,0,1,0.,24.0,0.,24.0,0.,24.0,0.,24.0
1981-08-30 02:02:34.870 ,1,1,0.,24.0,0.,24.0,0.,24.0,0.,24.0
1981-08-30 02:02:58.870 ,2,1,0.,24.0,0.,24.0,0.,24.0,0.,24.0
1981-08-30 02:03:22.870 ,3,1,0.,24.0,0.,24.0,1.,24.0,0.,24.0
1981-08-30 02:03:46.870 ,3,0,0.,24.0,0.,24.0,0.,24.0,0.,24.0
1981-08-30 02:04:10.870 ,4,1,0.,24.0,0.,24.0,0.,24.0,0.,24.0
1981-08-30 02:04:34.870 ,4,0,0.,24.0,0.,24.0,0.,24.0,0.,24.0
1981-08-30 02:04:58.870 ,5,1,0.,24.0,0.,24.0,1.,24.0,0.,24.0
1981-08-30 02:05:22.870 ,5,0,0.,24.0,0.,24.0,0.,24.0,0.,24.0
1981-08-30 02:05:46.870 ,6,1,0.,24.0,0.,24.0,0.,24.0,0.,24.0
1981-08-30 02:06:10.870 ,6,0,0.,24.0,0.,24.0,0.,24.0,0.,24.0
1981-08-30 02:06:34.870 ,7,1,9.,24.0,0.,24.0,1.,24.0,0.,24.0
1981-08-30 02:06:58.870 ,7,0,27.,24.0,0.,24.0,1.,24.0,0.,24.0
1981-08-30 02:07:22.870 ,7,1,36.,24.0,0.,24.0,0.,24.0,0.,24.0
1981-08-30 02:07:46.870 ,7,0,32.,24.0,0.,24.0,0.,24.0,0.,24.0
1981-08-30 02:08:10.870 ,6,1,22.,24.0,0.,24.0,0.,24.0,0.,24.0
1981-08-30 02:08:34.870 ,6,0,1.,24.0,0.,24.0,0.,24.0,0.,24.0
1981-08-30 02:08:58.870 ,5,1,0.,24.0,0.,24.0,2.,24.0,0.,24.0
1981-08-30 02:09:22.870 ,5,0,0.,24.0,0.,24.0,1.,24.0,0.,24.0
1981-08-30 02:09:46.870 ,4,1,0.,24.0,0.,24.0,0.,24.0,0.,24.0
1981-08-30 02:10:10.870 ,4,0,0.,24.0,0.,24.0,0.,24.0,0.,24.0
1981-08-30 02:10:34.870 ,3,1,0.,24.0,0.,24.0,0.,24.0,0.,24.0
1981-08-30 02:10:58.870 ,3,0,0.,24.0,0.,24.0,0.,24.0,0.,24.0
1981-08-30 02:11:22.870 ,2,1,0.,24.0,0.,24.0,0.,24.0,0.,24.0
1981-08-30 02:11:46.870 ,2,0,0.,24.0,0.,24.0,0.,24.0,0.,24.0
1981-08-30 02:12:10.870 ,1,1,0.,24.0,1.,24.0,0.,24.0,0.,24.0
1981-08-30 02:12:34.870 ,1,0,0.,24.0,0.,24.0,1.,24.0,0.,24.0
1981-08-30 02:12:58.870 ,0,1,0.,24.0,0.,24.0,0.,24.0,0.,24.0
1981-08-30 02:13:22.870 ,0,0,0.,24.0,0.,24.0,0.,24.0,0.,24.0
1981-08-30 02:13:46.870 ,0,1,0.,24.0,0.,24.0,0.,24.0,0.,24.0
1981-08-30 02:14:10.870 ,0,0,0.,24.0,0.,24.0,2.,24.0,0.,24.0
1981-08-30 02:14:34.870 ,1,1,0.,24.0,0.,24.0,0.,24.0,0.,24.0
1981-08-30 02:14:58.870 ,1,0,0.,24.0,0.,24.0,0.,24.0,0.,24.0
1981-08-30 02:15:22.870 ,2,1,1.,24.0,0.,24.0,0.,24.0,0.,24.0
1981-08-30 02:15:46.870 ,2,0,1.,24.0,0.,24.0,0.,24.0,0.,24.0
1981-08-30 02:16:10.870 ,3,1,0.,24.0,1.,24.0,0.,24.0,0.,24.0
1981-08-30 02:16:34.870 ,4,1,0.,24.0,0.,24.0,0.,24.0,0.,24.0
1981-08-30 02:16:58.870 ,5,1,0.,24.0,0.,24.0,0.,24.0,0.,24.0
1981-08-30 02:17:22.870 ,6,1,0.,24.0,0.,24.0,1.,24.0,0.,24.0
1981-08-30 02:17:46.870 ,7,1,8.,24.0,0.,24.0,0.,24.0,0.,24.0
1981-08-30 02:18:10.870 ,7,1,26.,24.0,0.,24.0,1.,24.0,0.,24.0
1981-08-30 02:18:34.870 ,6,1,23.,24.0,0.,24.0,1.,24.0,0.,24.0
1981-08-30 02:18:58.870 ,5,1,0.,24.0,0.,24.0,1.,24.0,0.,24.0
1981-08-30 02:19:22.870 ,4,1,0.,24.0,0.,24.0,0.,24.0,0.,24.0
1981-08-30 02:19:46.870 ,3,1,0.,24.0,0.,24.0,0.,24.0,0.,24.0
1981-08-30 02:20:10.870 ,2,1,0.,24.0,0.,24.0,0.,24.0,0.,24.0
1981-08-30 02:20:34.870 ,1,1,0.,24.0,0.,24.0,0.,24.0,0.,24.0
1981-08-30 02:20:58.870 ,0,1,0.,24.0,0.,24.0,0.,24.0,0.,24.0
1981-08-30 02:21:22.870 ,0,1,0.,24.0,0.,24.0,0.,24.0,0.,24.0
1981-08-30 02:21:46.870 ,1,1,0.,24.0,0.,24.0,1.,24.0,0.,24.0
1981-08-30 02:22:10.870 ,2,1,0.,24.0,0.,24.0,0.,24.0,0.,24.0
1981-08-30 02:22:34.870 ,3,1,0.,24.0,0.,24.0,0.,24.0,0.,24.0
1981-08-30 02:22:58.870 ,3,0,0.,24.0,0.,24.0,0.,24.0,0.,24.0
1981-08-30 02:23:22.870 ,4,1,0.,24.0,0.,24.0,0.,24.0,0.,24.0
1981-08-30 02:23:46.870 ,4,0,0.,24.0,0.,24.0,0.,24.0,0.,24.0
1981-08-30 02:24:10.870 ,5,1,0.,24.0,0.,24.0,0.,24.0,0.,24.0
1981-08-30 02:24:34.870 ,5,0,1.,24.0,0.,24.0,0.,24.0,0.,24.0
1981-08-30 02:24:58.870 ,6,1,0.,24.0,0.,24.0,0.,24.0,0.,24.0
1981-08-30 02:25:22.870 ,6,0,0.,24.0,0.,24.0,0.,24.0,0.,24.0
1981-08-30 02:25:46.870 ,7,1,9.,24.0,0.,24.0,0.,24.0,0.,24.0
1981-08-30 02:26:10.870 ,7,0,28.,24.0,0.,24.0,0.,24.0,0.,24.0
1981-08-30 02:26:34.870 ,7,1,38.,24.0,0.,24.0,1.,24.0,0.,24.0
1981-08-30 02:26:58.870 ,7,0,30.,24.0,0.,24.0,1.,24.0,0.,24.0
1981-08-30 02:27:22.870 ,6,1,21.,24.0,0.,24.0,0.,24.0,0.,24.0
1981-08-30 02:27:46.870 ,6,0,0.,24.0,0.,24.0,1.,24.0,0.,24.0
1981-08-30 02:28:10.870 ,5,1,0.,24.0,0.,24.0,2.,24.0,0.,24.0
1981-08-30 02:28:34.870 ,5,0,0.,24.0,0.,24.0,0.,24.0,0.,24.0
1981-08-30 02:28:58.870 ,4,1,0.,24.0,0.,24.0,2.,24.0,0.,24.0
1981-08-30 02:29:22.870 ,4,0,0.,24.0,0.,24.0,1.,24.0,0.,24.0
1981-08-30 02:29:46.870 ,3,1,0.,24.0,0.,24.0,0.,24.0,0.,24.0
1981-08-30 02:30:10.870 ,3,0,0.,24.0,0.,24.0,0.,24.0,0.,24.0
1981-08-30 02:30:34.870 ,2,1,0.,24.0,0.,24.0,2.,24.0,0.,24.0
1981-08-30 02:30:58.870 ,2,0,0.,24.0,0.,24.0,0.,24.0,0.,24.0
1981-08-30 02:31:22.870 ,1,1,0.,24.0,0.,24.0,1.,24.0,0.,24.0
1981-08-30 02:31:46.870 ,1,0,0.,24.0,1.,24.0,0.,24.0,0.,24.0
1981-08-30 02:32:10.870 ,0,1,0.,24.0,0.,24.0,1.,24.0,0.,24.0
1981-08-30 02:32:34.870 ,0,0,0.,24.0,0.,24.0,1.,24.0,0.,24.0
1981-08-30 02:32:58.870 ,0,1,0.,24.0,0.,24.0,0.,24.0,0.,24.0
1981-08-30 02:33:22.870 ,0,0,0.,24.0,0.,24.0,0.,24.0,0.,24.0
1981-08-30 02:33:46.870 ,1,1,0.,24.0,0.,24.0,0.,24.0,0.,24.0
1981-08-30 02:34:10.870 ,1,0,0.,24.0,0.,24.0,0.,24.0,0.,24.0
1981-08-30 02:34:34.870 ,2,1,0.,24.0,0.,24.0,0.,24.0,0.,24.0
1981-08-30 02:34:58.870 ,2,0,0.,24.0,0.,24.0,0.,24.0,0.,24.0
1981-08-30 02:35:22.870 ,3,1,0.,24.0,0.,24.0,0.,24.0,0.,24.0
1981-08-30 02:35:46.870 ,4,1,0.,24.0,0.,24.0,0.,24.0,0.,24.0
1981-08-30 02:36:10.870 ,5,1,0.,24.0,0.,24.0,0.,24.0,0.,24.0
1981-08-30 02:36:34.870 ,6,1,0.,24.0,0.,24.0,0.,24.0,0.,24.0
1981-08-30 02:36:58.870 ,7,1,6.,24.0,0.,24.0,0.,24.0,0.,24.0
1981-08-30 02:37:22.870 ,7,1,31.,24.0,0.,24.0,0.,24.0,0.,24.0
1981-08-30 02:37:46.870 ,6,1,25.,24.0,0.,24.0,0.,24.0,0.,24.0
1981-08-30 02:38:10.870 ,5,1,0.,24.0,0.,24.0,0.,24.0,0.,24.0
1981-08-30 02:38:34.870 ,4,1,0.,24.0,0.,24.0,0.,24.0,0.,24.0
1981-08-30 02:38:58.870 ,3,1,0.,24.0,0.,24.0,0.,24.0,0.,24.0
1981-08-30 02:39:22.870 ,2,1,0.,24.0,0.,24.0,0.,24.0,0.,24.0
1981-08-30 02:39:46.870 ,1,1,0.,24.0,0.,24.0,0.,24.0,0.,24.0
1981-08-30 02:40:10.870 ,0,1,0.,24.0,0.,24.0,1.,24.0,0.,24.0
1981-08-30 02:40:34.870 ,0,1,0.,24.0,0.,24.0,1.,24.0,0.,24.0
1981-08-30 02:40:58.870 ,1,1,0.,24.0,0.,24.0,0.,24.0,0.,24.0
1981-08-30 02:41:22.870 ,2,1,0.,24.0,0.,24.0,0.,24.0,0.,24.0
1981-08-30 02:41:46.870 ,3,1,0.,24.0,0.,24.0,0.,24.0,0.,24.0
1981-08-30 02:42:10.870 ,3,0,0.,24.0,0.,24.0,0.,24.0,0.,24.0
1981-08-30 02:42:34.870 ,4,1,0.,24.0,0.,24.0,0.,24.0,0.,24.0
1981-08-30 02:42:58.870 ,4,0,0.,24.0,0.,24.0,1.,24.0,0.,24.0
1981-08-30 02:43:22.870 ,5,1,0.,24.0,0.,24.0,0.,24.0,0.,24.0
1981-08-30 02:43:46.870 ,5,0,0.,24.0,0.,24.0,0.,24.0,0.,24.0
1981-08-30 02:44:10.870 ,6,1,0.,24.0,0.,24.0,0.,24.0,0.,24.0
1981-08-30 02:44:34.870 ,6,0,0.,24.0,0.,24.0,0.,24.0,0.,24.0
1981-08-30 02:44:58.870 ,7,1,4.,24.0,0.,24.0,0.,24.0,0.,24.0
1981-08-30 02:45:22.870 ,7,0,33.,24.0,0.,24.0,0.,24.0,0.,24.0
1981-08-30 02:45:46.870 ,7,1,33.,24.0,0.,24.0,0.,24.0,0.,24.0
1981-08-30 02:46:10.870 ,7,0,36.,24.0,0.,24.0,0.,24.0,0.,24.0
1981-08-30 02:46:34.870 ,6,1,25.,24.0,0.,24.0,0.,24.0,0.,24.0
1981-08-30 02:46:58.870 ,6,0,0.,24.0,0.,24.0,0.,24.0,0.,24.0
1981-08-30 02:47:22.870 ,5,1,0.,24.0,0.,24.0,0.,24.0,0.,24.0